• In Russia
  • List of Countries
  • For 7 days
  • Water Temperature
  • Satellite Maps
  • Weather Map
  • Weather Widgets
  • user-avatar
    Login

    Hourly Weather Ventspils

    Today, 19 January, Saturday

    Time Temperature Precipitation Wind Pressure Humidity
    00:00 -3°C° 0 mm 6 mps 755 mmHg 71%
    01:00 -4°C° 0 mm 6 mps 755 mmHg 73%
    02:00 -3°C° 0 mm 6 mps 756 mmHg 73%
    03:00 -3°C° 0 mm 6 mps 756 mmHg 73%
    04:00 -3°C° 0 mm 6 mps 756 mmHg 72%
    05:00 -3°C° 0 mm 6 mps 757 mmHg 72%
    06:00 -3°C° 0 mm 6 mps 757 mmHg 72%
    07:00 -2°C° 0 mm 5 mps 757 mmHg 71%
    08:00 -2°C° 0 mm 5 mps 758 mmHg 71%
    09:00 -2°C° 0 mm 5 mps 758 mmHg 70%
    10:00 -1°C° 0 mm 5 mps 758 mmHg 69%
    11:00 -2°C° 0 mm 6 mps 758 mmHg 67%
    12:00 -2°C° 0 mm 6 mps 758 mmHg 66%
    13:00 -1°C° 0 mm 6 mps 758 mmHg 65%
    14:00 -1°C° 0 mm 7 mps 757 mmHg 67%
    15:00 -1°C° 0 mm 8 mps 757 mmHg 69%
    16:00 -1°C° 0 mm 8 mps 756 mmHg 72%
    17:00 -1°C° 0 mm 8 mps 756 mmHg 71%
    18:00 -1°C° 0 mm 8 mps 756 mmHg 71%
    19:00 -1°C° 0 mm 8 mps 756 mmHg 71%
    20:00 -1°C° 0.1 mm 8 mps 756 mmHg 73%
    21:00 -1°C° 0.1 mm 8 mps 756 mmHg 75%
    22:00 -1°C° 0.1 mm 8 mps 756 mmHg 77%
    23:00 -1°C° 0.2 mm 8 mps 756 mmHg 73%

    Tomorrow, 20 January, Sunday

    Time Temperature Precipitation Wind Pressure Humidity
    00:00 -1°C° 0.2 mm 8 mps 756 mmHg 69%
    01:00 -2°C° 0.2 mm 7 mps 757 mmHg 65%
    02:00 -2°C° 0 mm 7 mps 757 mmHg 63%
    03:00 -2°C° 0 mm 7 mps 757 mmHg 61%
    04:00 -3°C° 0 mm 7 mps 757 mmHg 59%
    05:00 -3°C° 0 mm 7 mps 757 mmHg 61%
    06:00 -4°C° 0 mm 7 mps 757 mmHg 63%
    07:00 -4°C° 0 mm 7 mps 757 mmHg 65%
    08:00 -4°C° 0 mm 6 mps 758 mmHg 65%
    09:00 -3°C° 0 mm 6 mps 758 mmHg 64%
    10:00 -3°C° 0 mm 6 mps 759 mmHg 64%
    11:00 -3°C° 0 mm 7 mps 759 mmHg 64%
    12:00 -3°C° 0 mm 7 mps 759 mmHg 64%
    13:00 -3°C° 0 mm 7 mps 759 mmHg 64%
    14:00 -3°C° 0 mm 6 mps 760 mmHg 66%
    15:00 -4°C° 0 mm 6 mps 760 mmHg 69%
    16:00 -4°C° 0 mm 6 mps 760 mmHg 72%
    17:00 -4°C° 0 mm 6 mps 760 mmHg 72%
    18:00 -4°C° 0 mm 6 mps 761 mmHg 72%
    19:00 -4°C° 0 mm 6 mps 761 mmHg 72%
    20:00 -4°C° 0 mm 5 mps 761 mmHg 72%
    21:00 -4°C° 0 mm 5 mps 761 mmHg 72%
    22:00 -4°C° 0 mm 5 mps 761 mmHg 72%
    23:00 -4°C° 0 mm 5 mps 762 mmHg 71%

    Day after tomorrow, 21 January, Monday

    Time Temperature Precipitation Wind Pressure Humidity
    00:00 -4°C° 0 mm 5 mps 762 mmHg 71%
    01:00 -4°C° 0 mm 5 mps 762 mmHg 70%
    02:00 -4°C° 0 mm 5 mps 762 mmHg 70%
    03:00 -4°C° 0 mm 5 mps 761 mmHg 69%
    04:00 -4°C° 0 mm 5 mps 761 mmHg 68%
    05:00 -4°C° 0 mm 5 mps 761 mmHg 67%
    06:00 -3°C° 0 mm 4 mps 761 mmHg 66%
    07:00 -3°C° 0 mm 4 mps 761 mmHg 65%
    08:00 -3°C° 0 mm 4 mps 761 mmHg 65%
    09:00 -1°C° 0 mm 3 mps 760 mmHg 65%
    10:00 -1°C° 0 mm 3 mps 760 mmHg 65%
    11:00 -2°C° 0.1 mm 4 mps 760 mmHg 66%
    12:00 -1°C° 0.1 mm 5 mps 759 mmHg 66%
    13:00 -1°C° 0.1 mm 5 mps 759 mmHg 67%
    14:00 -1°C° 0.6 mm 5 mps 758 mmHg 73%
    15:00 -1°C° 0.6 mm 5 mps 757 mmHg 80%
    16:00 -1°C° 0.6 mm 5 mps 757 mmHg 86%
    17:00 -2°C° 0.2 mm 4 mps 756 mmHg 87%
    18:00 -2°C° 0.2 mm 4 mps 756 mmHg 88%
    19:00 -2°C° 0.2 mm 4 mps 756 mmHg 89%
    20:00 -2°C° 0.4 mm 4 mps 755 mmHg 91%
    21:00 -2°C° 0.4 mm 4 mps 755 mmHg 92%
    22:00 -2°C° 0.4 mm 4 mps 755 mmHg 94%
    23:00 -2°C° 0.4 mm 5 mps 756 mmHg 92%

    22 January, Tuesday

    Time Temperature Precipitation Wind Pressure Humidity
    00:00 -4°C° 0.4 mm 7 mps 756 mmHg 91%
    01:00 -5°C° 0.4 mm 8 mps 756 mmHg 89%
    02:00 -5°C° 0 mm 8 mps 756 mmHg 86%
    03:00 -6°C° 0 mm 8 mps 756 mmHg 84%
    04:00 -6°C° 0 mm 7 mps 756 mmHg 81%
    05:00 -7°C° 0 mm 7 mps 757 mmHg 80%
    06:00 -7°C° 0 mm 7 mps 757 mmHg 79%
    07:00 -8°C° 0 mm 6 mps 758 mmHg 79%
    08:00 -8°C° 0 mm 6 mps 758 mmHg 77%
    09:00 -7°C° 0 mm 5 mps 758 mmHg 75%
    10:00 -7°C° 0 mm 5 mps 759 mmHg 74%
    11:00 -7°C° 0 mm 5 mps 759 mmHg 72%
    12:00 -7°C° 0 mm 4 mps 759 mmHg 70%
    13:00 -7°C° 0 mm 4 mps 759 mmHg 69%
    14:00 -8°C° 0 mm 4 mps 759 mmHg 71%
    15:00 -7°C° 0 mm 3 mps 759 mmHg 74%
    16:00 -8°C° 0 mm 3 mps 759 mmHg 76%
    17:00 -8°C° 0 mm 3 mps 759 mmHg 77%
    18:00 -9°C° 0 mm 3 mps 760 mmHg 77%
    19:00 -8°C° 0 mm 2 mps 760 mmHg 78%
    20:00 -8°C° 0 mm 2 mps 760 mmHg 78%
    21:00 -8°C° 0 mm 2 mps 760 mmHg 79%
    22:00 -8°C° 0 mm 2 mps 760 mmHg 79%
    23:00 -8°C° 0 mm 2 mps 760 mmHg 79%

    23 January, Wednesday

    Time Temperature Precipitation Wind Pressure Humidity
    00:00 -8°C° 0 mm 2 mps 760 mmHg 80%
    01:00 -9°C° 0 mm 2 mps 760 mmHg 80%
    02:00 -9°C° 0 mm 2 mps 760 mmHg 81%
    03:00 -9°C° 0 mm 2 mps 760 mmHg 82%
    04:00 -9°C° 0 mm 2 mps 760 mmHg 82%
    05:00 -9°C° 0 mm 2 mps 760 mmHg 82%
    06:00 -10°C° 0 mm 3 mps 760 mmHg 82%
    07:00 -10°C° 0 mm 3 mps 760 mmHg 82%
    08:00 -10°C° 0 mm 3 mps 760 mmHg 79%
    09:00 -9°C° 0 mm 3 mps 760 mmHg 76%
    10:00 -10°C° 0 mm 4 mps 760 mmHg 74%
    11:00 -9°C° 0 mm 4 mps 760 mmHg 72%
    12:00 -9°C° 0 mm 4 mps 760 mmHg 71%
    13:00 -8°C° 0 mm 4 mps 760 mmHg 70%
    14:00 -8°C° 0 mm 4 mps 760 mmHg 74%
    15:00 -8°C° 0 mm 4 mps 760 mmHg 78%
    16:00 -7°C° 0 mm 3 mps 760 mmHg 82%
    17:00 -7°C° 0.1 mm 3 mps 760 mmHg 82%
    18:00 -7°C° 0.1 mm 3 mps 760 mmHg 82%
    19:00 -6°C° 0.1 mm 3 mps 760 mmHg 82%
    20:00 -6°C° 0.2 mm 3 mps 760 mmHg 83%
    21:00 -7°C° 0.2 mm 4 mps 760 mmHg 84%
    22:00 -5°C° 0.2 mm 4 mps 760 mmHg 85%
    23:00 -6°C° 0.3 mm 5 mps 761 mmHg 86%

    24 January, Thursday

    Time Temperature Precipitation Wind Pressure Humidity
    00:00 -6°C° 0.3 mm 5 mps 761 mmHg 87%
    01:00 -6°C° 0.3 mm 6 mps 761 mmHg 88%
    02:00 -8°C° 0 mm 6 mps 761 mmHg 83%
    03:00 -7°C° 0 mm 5 mps 761 mmHg 78%
    04:00 -8°C° 0 mm 5 mps 761 mmHg 73%
    05:00 -8°C° 0 mm 5 mps 762 mmHg 72%
    06:00 -8°C° 0 mm 5 mps 762 mmHg 70%
    07:00 -9°C° 0 mm 4 mps 762 mmHg 69%
    08:00 -8°C° 0 mm 4 mps 763 mmHg 68%
    09:00 -7°C° 0 mm 3 mps 763 mmHg 66%
    10:00 -7°C° 0 mm 3 mps 764 mmHg 64%
    11:00 -7°C° 0.2 mm 4 mps 764 mmHg 65%
    12:00 -7°C° 0.2 mm 4 mps 764 mmHg 66%
    13:00 -7°C° 0.2 mm 5 mps 764 mmHg 68%
    14:00 -8°C° 0.1 mm 6 mps 765 mmHg 69%
    15:00 -9°C° 0.1 mm 6 mps 765 mmHg 70%
    16:00 -9°C° 0.1 mm 6 mps 765 mmHg 70%
    17:00 -10°C° 0 mm 6 mps 766 mmHg 72%
    18:00 -10°C° 0 mm 6 mps 766 mmHg 73%
    19:00 -11°C° 0 mm 6 mps 767 mmHg 75%
    20:00 -11°C° 0 mm 5 mps 767 mmHg 75%
    21:00 -10°C° 0 mm 4 mps 767 mmHg 75%
    22:00 -10°C° 0 mm 4 mps 768 mmHg 76%
    23:00 -9°C° 0 mm 3 mps 768 mmHg 76%
    Show more